Weather Roundup
Issued by NWS Corpus Christi, TX

Home | Current Version | Previous Version | Text Only | Print | Product List | Glossary On
Versions: 1 2 3 4 5 6 7 8 9 10 11 12 13 14 15 16 17 18 19 20 21 22 23 24 25 26 27 28 29 30 31 32 33 34 35 36 37 38 39 40 41 42 43 44 45 46 47 48 49 50
000
ASUS44 KCRP 230810
HRRCRP

SOUTH TEXAS REGIONAL WEATHER ROUNDUP
NATIONAL WEATHER SERVICE CORPUS CHRISTI TX
300 AM CDT THU MAR 23 2017


TXZ229>244-230900-
...CORPUS CHRISTI AREA OBSERVATIONS...

CITY           SKY/WX    TMP DP  RH WIND       PRES   REMARKS
CORPUS CHRISTI PTCLDY    68  66  93 SE13      30.08F
NAS CORPUS CHR NOT AVBL
ROCKPORT       CLEAR     71  66  84 SE12G18   30.09F
KINGSVILLE NAS PTCLDY    68  68 100 SE9       30.07F
ALICE          PTCLDY    65  64  97 SE8       30.06F
ORANGE GROVE   CLEAR     66  66 100 SE8       30.08F
FALFURRIAS     PTCLDY    66  64  95 SE6       30.06F
$$

...VICTORIA AREA OBSERVATIONS...

CITY           SKY/WX    TMP DP  RH WIND       PRES   REMARKS
VICTORIA       PTCLDY    65  63  93 S7        30.10F
BEEVILLE       FOG       54  54 100 SE5       30.08F VSB 1/2
PLEASANTON     MOCLDY    64  64  98 SE6       30.08F
SAN ANTONIO    CLOUDY    67  62  84 S14G24    30.09F
$$

...LAREDO AREA OBSERVATIONS...

CITY           SKY/WX    TMP DP  RH WIND       PRES   REMARKS
LAREDO         CLOUDY    70  64  81 SE15      30.03F
COTULLA        PTCLDY    68  63  84 SE10      30.04F
DEL RIO        CLEAR     67  62  84 SE14      29.98F
MCALLEN        PTCLDY    69  64  84 SE9       30.05F
HEBBRONVILLE   PTCLDY    64  62  95 SE8       30.06F
$$

...OTHER TEXAS OBSERVATIONS...

CITY           SKY/WX    TMP DP  RH WIND       PRES   REMARKS
BROWNSVILLE    PTCLDY    66  64  93 SE5       30.08F
HOUSTON        PTCLDY    64  62  93 S3        30.13S
COL. STATION   PTCLDY    66  64  93 S10       30.11F
AUSTIN         CLOUDY    69  64  84 S10G24    30.07F
WACO           MOCLDY    67  63  87 S18       30.07F
FORT WORTH     CLEAR     70  61  73 S15       30.03F
WICHITA FALLS  CLEAR     62  57  83 SE10      29.97F
LUBBOCK        MOCLDY    63  58  83 S21G29    29.93F
EL PASO        PTCLDY    71  12  10 SW7       29.91F
$$

...MARINE OBSERVATIONS...

STATION/POSITION TIME  SKY/WX   TEMP    WIND        PRES    VSBY  WAVE   SWELL
                                AIR SEA DIR/SP/G                  HT/PER HT/PER
                 (UTC)          (F)     (DEG/KT/KT) (MB)    (MI)  (FT/S) (FT/S)
PORT ARANSAS     0700            70 72  140/ 12/ 13 1019.2F
BUOY 90 E PORT A 0650            73 72  150/ 10/ 16 1020.4          3/ 6   2/ 6
BUOY 45 SE BAFFI 0650            73     150/ 16/ 17 1018.8          3/ 5
BUOY 200 E PT IS 0650            74 76  130/ 12/ 14 1021.1          3/ 5   2/ 7
BUOY 15 E GALVES 0650            71 73  180/ 12/ 16 1020.7          2/ 6   2/ 9
$$




USA.gov is the U.S. government's official web portal to all federal, state and local government web resources and services.